Regional Weather Roundup
Issued by NWS

Home | Current Version | Previous Version | Graphics & Text | Print | Product List | Glossary On
Versions: 1 2 3 4 5 6 7 8 9 10 11 12 13 14 15 16 17 18 19 20 21 22 23 24 25 26 27 28 29 30 31 32 33 34 35 36 37 38 39 40 41 42 43 44 45 46 47 48 49 50
000
ASUS45 KABQ 301810
RWRNM
NEW MEXICO REGIONAL WEATHER ROUNDUP
NATIONAL WEATHER SERVICE ALBUQUERQUE NM
1200 PM MDT SUN APR 30 2017

NOTE: "FAIR" MEANS FEW OR NO CLOUDS BELOW 12,000 FEET AGL WITH NO
       SIGNIFICANT WEATHER OR OBSTRUCTIONS TO VISION.

      THIS PRODUCT IS RELEASED AS TWO VERSIONS.  ONE VERSION NEAR
      THE TOP OF THE HOUR CONTAINING PRELIMINARY DATA FROM ALBUQUERQUE
      AND OTHER STATIONS.  A FINAL VERSION WITH ADDITIONAL DATA IS
      ISSUED ABOUT 10 MINUTES AFTER THE HOUR.

NMZ501-503-504-510>518-301900-
NORTHWEST PLATEAU/NORTHCENTRAL MOUNTAINS

CITY           SKY/WX    TMP DP  RH WIND       PRES   REMARKS
FARMINGTON     FAIR      53  14  21 W23G36    30.07S
6HR MIN TEMP:  34; 6HR MAX TEMP:  53;

LOS ALAMOS     FAIR      42  30  62 SE6       30.05S
SANTA FE       FAIR      41  31  67 SW7       30.04S
6HR MIN TEMP:  29; 6HR MAX TEMP:  41;

TAOS             N/A     45  18  33 N9        30.02F
ANGEL FIRE     FAIR      35  19  51 W14G22    29.98S WCI  26

$$
NMZ402-403-502-505>509-301900-
WESTCENTRAL MOUNTAINS/SOUTHWEST MOUNTAINS

CITY           SKY/WX    TMP DP  RH WIND       PRES   REMARKS
GALLUP         FAIR      50  15  24 NW13G24   30.16F
6HR MIN TEMP:  19; 6HR MAX TEMP:  52;

GRANTS         FAIR      52  15  23 NW22G37   30.14S
SILVER CITY    FAIR      60  13  16 W22G28    30.13S

$$
NMZ407-409-411-412-301900-
SOUTHERN DESERTS

CITY           SKY/WX    TMP DP  RH WIND       PRES   REMARKS
DEMING         FAIR      66  13  12 NW20G28   30.09F
6HR MIN TEMP:  36; 6HR MAX TEMP:  67;

LAS CRUCES     FAIR      63  14  15 NW6       30.11S
HOLLOMAN AFB   FAIR      58  28  31 NW14      30.11F
ALAMOGORDO     FAIR      57  27  30 NW13G20   30.10S
T OR C         FAIR      65  13  13 NW10G25   30.06S
6HR MIN TEMP:  34; 6HR MAX TEMP:  65;


$$
NMZ519>523-301900-
CENTRAL VALLEYS/CENTRAL HIGHLANDS

CITY           SKY/WX    TMP DP  RH WIND       PRES   REMARKS
ALBUQUERQUE    FAIR      53  23  31 N18G28    30.08F
6HR MIN TEMP:  35; 6HR MAX TEMP:  53;

DOUBLE EAGLE   MOSUNNY   52  25  35 NW17G29   30.08F
MORIARTY ARPT  FAIR      49  31  48 W22G33    30.04S
6HR MIN TEMP:  32; 6HR MAX TEMP:  50;

CLINES CORNERS NOT AVBL
BELEN          FAIR      52  28  40 CALM      30.08F
6HR MIN TEMP:  33; 6HR MAX TEMP:  52;

SOCORRO        FAIR      60  24  25 NW22G29   30.06F
6HR MIN TEMP:  33; 6HR MAX TEMP:  60;


$$
NMZ524>526-539-540-301900-
SOUTHCENTRAL MOUNTAINS

CITY           SKY/WX    TMP DP  RH WIND       PRES   REMARKS
RUIDOSO        FAIR      45  25  45 W24G37    30.05F

$$
NMZ527>531-301900-
NORTHEAST HIGHLANDS/NORTHEAST PLAINS

CITY           SKY/WX    TMP DP  RH WIND       PRES   REMARKS
LAS VEGAS      FAIR      43  23  45 NW3       29.96S
6HR MIN TEMP:  17; 6HR MAX TEMP:  43;

RATON          FAIR      47  17  30 N17G24    29.92S
6HR MIN TEMP:  30; 6HR MAX TEMP:  47;

CLAYTON        FAIR      37  26  64 NW29G40   29.83R WCI  25
6HR MIN TEMP:  30; 6HR MAX TEMP:  37;


$$
NMZ532>537-301900-
EASTCENTRAL PLAINS

CITY           SKY/WX    TMP DP  RH WIND       PRES   REMARKS
SANTA ROSA     FAIR      48  33  55 S3        29.96S
TUCUMCARI      FAIR      49  33  54 NW15      29.94S
6HR MIN TEMP:  34; 6HR MAX TEMP:  49; 6HR PCP: TRACE;

CANNON AFB     FAIR      51  24  35 NW20G28   29.97R
6HR MIN TEMP:  33; 6HR MAX TEMP:  51;

CLOVIS AIRPORT FAIR      52  25  35 NW22G28   29.97S

$$
NMZ028-029-538-301900-
SOUTHEAST PLAINS

CITY           SKY/WX    TMP DP  RH WIND       PRES   REMARKS
ROSWELL        FAIR      63  28  26 NW18G30   30.02R
6HR MIN TEMP:  33; 6HR MAX TEMP:  64;

ARTESIA        FAIR      63  32  31 N17G23    29.98S
CARLSBAD       FAIR      64  30  27 W24G32    29.97F
6HR MIN TEMP:  33; 6HR MAX TEMP:  64;

HOBBS          MOSUNNY   55  32  41 W14       30.00F


$$



USA.gov is the U.S. government's official web portal to all federal, state and local government web resources and services.